Lake Mayers Weather Center

Moon Phase Calendar



Lake Mayers Water Level
Online Cameras

 


      

Current Conditions in Baxley
4/11/2021 6:18:35 AM

58°F
Feels Like 58
Fog
Humidity
100%
Pressure
29.74"
Wind
3.4 mph (WSW)
Dew Point
58°F
UV Index
0/10 (Low)
Visibility
1 mi

Hourly Forecast

Date & Time Sun, Apr 11
6:00 AM
Sun, Apr 11
7:00 AM
Sun, Apr 11
8:00 AM
Sun, Apr 11
9:00 AM
Sun, Apr 11
10:00 AM
Sun, Apr 11
11:00 AM
Sun, Apr 11
12:00 PM
Sun, Apr 11
1:00 PM
Sun, Apr 11
2:00 PM
Sun, Apr 11
3:00 PM
Sun, Apr 11
4:00 PM
Sun, Apr 11
5:00 PM
Sun, Apr 11
6:00 PM
Sun, Apr 11
7:00 PM
Sun, Apr 11
8:00 PM
Sun, Apr 11
9:00 PM
Sun, Apr 11
10:00 PM
Sun, Apr 11
11:00 PM
Mon, Apr 12
12:00 AM
Mon, Apr 12
1:00 AM
Mon, Apr 12
2:00 AM
Mon, Apr 12
3:00 AM
Mon, Apr 12
4:00 AM
Mon, Apr 12
5:00 AM
Mon, Apr 12
6:00 AM
Mon, Apr 12
7:00 AM
Mon, Apr 12
8:00 AM
Mon, Apr 12
9:00 AM
Mon, Apr 12
10:00 AM
Mon, Apr 12
11:00 AM
Mon, Apr 12
12:00 PM
Mon, Apr 12
1:00 PM
Mon, Apr 12
2:00 PM
Mon, Apr 12
3:00 PM
Mon, Apr 12
4:00 PM
Mon, Apr 12
5:00 PM
Mon, Apr 12
6:00 PM
Mon, Apr 12
7:00 PM
Mon, Apr 12
8:00 PM
Mon, Apr 12
9:00 PM
Mon, Apr 12
10:00 PM
Mon, Apr 12
11:00 PM
Tue, Apr 13
12:00 AM
Tue, Apr 13
1:00 AM
Tue, Apr 13
2:00 AM
Tue, Apr 13
3:00 AM
Tue, Apr 13
4:00 AM
Tue, Apr 13
5:00 AM
Condition
Clouds

Clouds

Clouds

Rain

Rain

Clouds

Clouds

Clouds

Rain

Rain

Clouds

Rain

Rain

Rain

Rain

Rain

Clear

Clear

Clear

Clear

Clear

Clear

Clear

Clear

Clear

Clear

Clear

Clear

Clear

Clear

Clear

Clear

Clear

Clear

Clear

Clear

Clear

Clear

Clear

Clear

Clear

Clear

Clear

Clouds

Clouds

Clouds

Clouds

Clouds
Temperature 58°F57°F59°F62°F67°F68°F69°F71°F75°F75°F75°F75°F75°F73°F69°F67°F65°F63°F60°F59°F57°F57°F56°F55°F55°F54°F55°F61°F66°F70°F73°F76°F78°F80°F80°F79°F78°F74°F69°F68°F66°F65°F64°F63°F63°F62°F61°F60°F
Feels Like 58°F57°F59°F63°F67°F68°F69°F72°F75°F76°F75°F76°F75°F73°F69°F67°F65°F62°F60°F58°F56°F55°F55°F54°F53°F52°F54°F60°F65°F69°F72°F75°F77°F80°F80°F79°F78°F74°F69°F67°F66°F64°F63°F62°F62°F61°F60°F60°F
Cloudiness 90%49%35%99%100%100%100%100%96%80%90%86%79%66%57%11%5%4%3%2%2%0%0%0%0%0%0%0%0%0%0%0%1%0%0%0%0%0%0%4%5%4%4%20%33%93%97%97%
Visibility 6 mi6 mi6 mi6 mi6 mi6 mi6 mi6 mi6 mi6 mi6 mi6 mi6 mi6 mi6 mi6 mi6 mi6 mi6 mi6 mi6 mi6 mi6 mi6 mi6 mi6 mi6 mi6 mi6 mi6 mi6 mi6 mi6 mi6 mi6 mi6 mi6 mi6 mi6 mi6 mi6 mi6 mi6 mi6 mi6 mi6 mi6 mi6 mi
Precipitation 4%11%30%48%64%61%49%41%61%82%72%71%70%74%71%47%36%27%23%20%16%0%0%0%0%0%0%0%0%0%0%0%0%0%0%0%0%0%0%0%0%0%0%0%0%0%0%0%
Humidity 100%97%95%88%80%79%78%72%66%66%66%64%68%74%81%84%82%75%71%71%74%75%75%76%76%78%78%67%54%43%38%36%34%34%34%37%42%52%55%56%57%60%62%64%66%67%69%72%
Dew Point 58°F57°F57°F59°F61°F61°F62°F62°F63°F63°F63°F63°F64°F64°F62°F62°F59°F55°F51°F50°F49°F49°F49°F48°F47°F47°F49°F50°F49°F47°F47°F48°F48°F49°F50°F51°F54°F56°F53°F51°F51°F51°F51°F51°F51°F51°F51°F52°F
Pressure 29.74"29.74"29.74"29.74"29.74"29.74"29.74"29.74"29.71"29.68"29.65"29.65"29.62"29.62"29.65"29.68"29.71"29.71"29.74"29.74"29.77"29.77"29.77"29.77"29.8"29.83"29.85"29.85"29.88"29.88"29.88"29.85"29.85"29.85"29.85"29.85"29.85"29.85"29.88"29.91"29.94"29.94"29.94"29.94"29.94"29.94"29.94"29.94"
Wind Speed 6.7 mph5.7 mph6.5 mph9.2 mph9.2 mph8.2 mph9.2 mph10.4 mph12.5 mph12.4 mph11 mph12 mph11.3 mph9.4 mph7.7 mph6.2 mph6.3 mph6.4 mph7.2 mph7.4 mph7.1 mph6.9 mph7 mph7 mph7.1 mph7.3 mph6.6 mph7.6 mph7.4 mph7.9 mph7.4 mph7.8 mph8.9 mph11.3 mph12.6 mph11.9 mph10 mph7 mph6.9 mph7 mph7.6 mph7.4 mph7.1 mph7 mph6.6 mph6.7 mph6.3 mph6.2 mph
Wind
Direction
214°
SW
222°
SW
215°
SW
233°
SW
240°
WSW
237°
WSW
211°
SSW
216°
SW
226°
SW
227°
SW
234°
SW
227°
SW
215°
SW
210°
SSW
221°
SW
239°
WSW
286°
WNW
300°
WNW
298°
WNW
300°
WNW
308°
NW
315°
NW
311°
NW
307°
NW
307°
NW
311°
NW
317°
NW
328°
NNW
325°
NW
334°
NNW
328°
NNW
320°
NW
304°
NW
295°
WNW
298°
WNW
299°
WNW
292°
WNW
283°
WNW
270°
W
264°
W
260°
W
264°
W
278°
W
287°
WNW
285°
WNW
295°
WNW
314°
NW
334°
NNW

Daily Forecast

Date High Low Precip. Humidity
Today
Apr 11

Rain
75 °F
57 °F
82%
72%
Monday
Apr 12

Clear
80 °F
54 °F
23%
36%
Tuesday
Apr 13

Clouds
83 °F
60 °F
0%
41%
Wednesday
Apr 14

Rain
80 °F
62 °F
28%
38%
Thursday
Apr 15

Rain
72 °F
57 °F
90%
39%
Friday
Apr 16

Clouds
69 °F
53 °F
13%
48%
Saturday
Apr 17

Rain
71 °F
57 °F
25%
57%
Sunday
Apr 18

Clouds
75 °F
55 °F
0%
40%
Monday
Apr 19

Clouds
73 °F
57 °F
0%
43%
Tuesday
Apr 20

Clear
72 °F
55 °F
0%
37%
Wednesday
Apr 21

Clear
67 °F
52 °F
0%
30%
Thursday
Apr 22

Clouds
70 °F
46 °F
0%
31%
Friday
Apr 23

Clouds
76 °F
52 °F
0%
33%
Saturday
Apr 24

Clear
81 °F
56 °F
0%
30%
Sunday
Apr 25

Clouds
83 °F
59 °F
0%
34%
Monday
Apr 26

Rain
83 °F
61 °F
31%
35%

Temperature 8-14 Day Outlook



Precipitation 8-14 Day Outlook




Quick Links
Lake Mayers News
Lake Mayers Photos
Lake Mayers Videos




About Us
Contact Us
Site Map
Search Site
Advertise With Us
   
Mayers.LakesOnline.com
THE LAKE MAYERS WEBSITE

Copyright 2021, Lakes Online
Privacy    |    Legal